CAPE
0 0 0 13 45 1 2 0 0 0 0 0 225 539 712 218 184 521 831 1096 1162 1408 1400 1377 1220 1122 1368 1588 1627 2225 1781 1986 2671 2419 1844 1777 2292 2330 2108 2328 2315 2939 2066 2450
0 0 4 2 0 0 0 0 1 0 0 0 375 912 1009 715 571 715 868 948 1029 1024 1257 1537 1355 1335 1293 1987 1764 2107 2523 2228 1936 1833 1835 2493 3320 2216 2460 3264 2944 2368 2690 2457
0 0 0 0 0 0 0 0 3 0 0 0 146 488 755 726 1200 1198 900 660 804 810 1436 2017 1835 1465 1633 2607 2538 1918 2381 2828 1504 2033 1803 2372 2337 3447 3091 2416 2778 2574 3022 2870
0 0 0 0 0 0 0 1 0 0 0 0 0 402 172 546 925 1701 1636 1138 566 464 752 1695 1913 1689 1678 2432 3147 3055 2407 2686 2665 2079 2640 1770 1742 1943 2694 2565 2850 2988 2764 2432
0 0 0 0 0 0 0 0 0 0 0 0 65 210 0 123 681 1592 1876 1797 1293 760 482 494 1008 1863 1697 2193 2477 3547 3527 3386 2652 2568 2776 2933 2975 2550 3025 3199 3115 3619 3610 3343
0 0 0 0 0 0 0 0 0 0 0 0 7 77 0 325 988 1318 1877 2090 2024 1882 1327 1017 1033 1890 2062 2402 2504 2744 4013 4111 4118 3813 2721 2272 3424 3023 2970 2752 2491 2771 2663 2616
0 0 0 0 0 0 0 0 0 12 68 47 329 106 4 451 841 1076 1602 1991 2180 2355 2443 1725 1755 2081 1945 2493 2608 2870 4195 4341 4188 3821 3800 3440 3135 3637 3019 2774 2404 2311 1853 1726
0 0 0 0 0 0 0 0 14 164 77 115 848 402 563 692 809 826 1051 1520 1948 2221 2271 2375 2510 2658 3067 3088 2914 2662 3865 4385 4275 3890 3524 3524 4176 3519 2877 2864 2637 1972 2434 2607
11 54 2 0 0 0 0 125 29 111 65 120 667 406 390 674 750 712 688 656 799 1067 1546 1905 2177 2438 2910 2963 2657 2314 2501 3162 3298 3297 3412 3289 3528 3864 3410 3409 3118 2801 2306 2191
0 291 137 31 0 0 12 67 116 141 150 207 464 185 215 208 618 823 711 538 395 382 443 633 987 1434 1814 2463 2524 2429 2187 2352 2352 2393 2334 3012 3339 3469 3670 3692 3300 3215 3170 2975
0 14 132 55 85 21 18 34 126 69 178 77 18 214 8 0 451 660 544 378 182 147 160 252 340 515 745 1083 1449 1814 1848 2017 2100 2219 2115 2299 2313 2347 2614 3052 3201 3156 2715 2735
0 0 75 146 132 203 179 247 166 88 35 8 114 152 107 161 558 324 215 79 14 0 0 0 7 28 56 260 496 638 861 1159 1184 1585 1835 2113 2121 1808 1838 2074 2652 2636 2754 2859
46 36 8 73 208 260 330 219 85 104 26 68 228 538 247 385 367 241 82 31 0 0 0 0 0 78 55 102 293 76 279 684 692 1307 1106 1591 1874 1872 1766 1635 1633 1834 1852 2298
16 67 232 349 171 39 65 33 68 291 221 159 135 935 785 528 431 90 5 0 0 0 0 0 0 9 37 82 206 215 178 224 371 521 616 1108 923 1317 1735 771 1334 1452 1511 1597
55 58 292 234 79 1 2 35 28 150 282 112 71 90 782 627 385 40 0 0 0 0 0 2 0 0 0 6 52 14 11 4 36 199 231 358 940 1426 1804 1638 1778 1241 1530 1536
110 236 194 221 88 108 111 143 182 147 106 40 39 643 693 444 315 237 0 0 0 0 0 0 0 0 0 8 32 41 81 68 43 24 103 331 778 1151 1417 1428 1377 1565 1723 1821
195 248 477 377 435 143 321 253 161 137 87 41 6 188 35 3 0 0 0 0 0 0 0 0 0 1 17 11 14 11 4 0 13 49 66 155 423 677 846 985 1133 1263 1330 1442
119 233 280 217 304 119 283 255 146 41 9 0 0 65 0 0 0 0 0 0 0 0 0 0 0 2 8 4 11 28 21 25 33 42 93 64 105 170 389 593 827 984 1325 1334
3 2 26 78 65 142 177 151 19 7 0 0 0 0 0 0 0 0 0 0 0 0 0 0 0 0 1 11 10 1 32 27 44 41 74 40 16 38 112 212 382 584 773 1179
78 29 82 115 5 66 216 1 5 5 0 0 0 0 0 0 0 0 0 0 0 0 0 0 0 0 0 5 1 17 16 2 37 48 59 63 57 54 29 34 69 403 724 1029
195 125 1 24 6 22 15 38 8 0 32 0 0 0 0 0 0 0 0 0 0 0 0 0 0 0 0 0 1 18 13 19 57 43 34 46 59 55 24 9 15 284 488 799
42 86 87 9 48 102 4 0 11 197 0 0 0 0 0 0 0 0 0 0 0 0 0 0 0 0 1 2 0 0 0 0 0 0 0 0 54 50 24 26 20 107 375 682
5 17 312 305 409 160 1 10 39 0 0 0 0 0 0 0 0 0 0 0 0 0 0 0 0 1 2 0 0 0 0 0 0 0 0 0 0 29 23 39 59 99 209 505
154 1 12 19 54 13 0 0 0 0 0 0 0 0 0 0 0 0 0 0 0 0 0 0 1 5 0 0 0 0 0 0 0 0 0 0 0 1 2 75 72 93 205 301
298 69 0 0 193 35 0 0 0 0 0 0 0 0 0 0 0 0 0 0 0 0 0 0 6 7 4 0 0 0 0 0 0 0 0 0 0 0 24 119 180 219 145 244
7 13 14 17 207 195 1 0 0 0 0 0 0 0 0 0 0 0 0 0 0 0 0 2 5 2 2 3 0 0 0 0 0 0 0 0 0 0 19 91 186 186 113 121
CIN
0 0 0 -7 -9 -2 -5 0 0 0 0 0 -8 -3 -27 -37 -9 -1 0 -2 -4 -6 -6 -49 -16 -10 -3 -66 -91 -37 -104 -85 -6 -14 -27 -13 -3 -37 -30 -9 -9 -28 -6 -22
0 0 -30 -3 0 -12 0 0 -1 0 0 0 -2 -1 -27 -49 -36 -32 -19 -1 -2 -4 -20 -69 -48 -43 -35 -96 -133 -91 -60 -106 -100 -112 -83 -16 -8 -37 -20 -9 -19 -5 -3 -12
0 0 0 0 0 0 0 0 -2 0 0 0 -1 -153 -16 -7 -3 -12 -48 -46 -28 -11 -9 -19 -79 -32 -15 -71 -122 -166 -91 -66 -144 -87 -78 -41 -51 -14 -13 -27 -10 -16 -8 -11
0 0 0 0 0 0 0 0 0 0 0 0 0 -76 -54 -36 -10 -1 -1 -11 -55 -56 -28 -12 -27 -64 -61 -4 -52 -110 -135 -58 -39 -63 -18 -71 -41 -16 -4 -15 -6 -11 -25 -37
0 0 0 0 0 0 0 0 0 0 0 0 -10 -200 0 -77 -9 0 -6 -6 -5 -39 -38 -29 -17 -19 -60 -57 -10 -14 -59 -48 -60 -39 -17 -7 -4 -3 -4 -8 -13 -12 -13 -9
0 0 0 0 0 0 0 0 0 0 0 0 -2 -62 0 -145 -30 -16 -6 -11 -10 -10 -54 -46 -30 -63 -21 -10 -11 -4 -32 -26 -6 -10 -35 -43 -9 -11 -12 -17 -33 -12 -15 -25
0 0 0 0 0 0 0 0 0 -31 -16 0 -28 -72 -26 -141 -39 -55 -28 -16 -28 -39 -36 -54 -37 -31 -26 -14 -18 -4 -22 -19 -9 -5 -2 -7 -14 -4 -10 -17 -37 -42 -33 -49
0 0 0 0 0 0 0 0 -20 -37 -11 -1 -42 -78 -91 -20 -35 -68 -94 -78 -62 -57 -74 -68 -44 -40 -44 -44 -19 -13 -6 -10 -4 -18 -19 -15 -2 -3 -2 -7 -11 -32 -36 -25
-1 -24 -9 0 0 0 0 -1 -1 0 -1 -1 -85 -148 -69 -1 -3 -35 -107 -139 -167 -170 -151 -115 -67 -46 -48 -24 -102 -33 -19 -28 -5 -3 -42 -30 -11 -3 -2 -6 -13 -12 -20 -21
-5 -10 -34 -16 0 0 -50 -17 -4 -6 -14 -30 -2 -76 -60 -19 -6 -15 -97 -123 -194 -243 -258 -248 -202 -165 -104 -21 -33 -58 -28 -6 -13 -6 -14 -13 -15 -18 -6 -7 -7 -10 -13 -22
0 -19 -32 -86 -56 -61 -31 -55 -66 -28 -107 -168 -154 -49 -197 0 -22 -43 -117 -171 -214 -255 -282 -284 -287 -249 -209 -146 -93 -42 -27 -10 -8 -6 -11 -6 0 -2 -22 -13 -24 -23 -34 -26
0 0 -14 -19 -12 -3 -17 -32 -124 -128 -382 -74 -17 -91 -298 -341 -38 -62 -176 -270 -282 -3 0 0 -279 -386 -367 -287 -209 -158 -118 -45 -31 -6 -2 0 0 0 0 -28 -23 -27 -10 -10
-52 -75 -78 -1 -6 -86 -24 -42 -49 -37 -47 -33 -17 -35 -114 -30 -20 -87 -193 -285 0 0 0 0 0 -329 -340 -295 -205 -311 -195 -81 -70 -8 -26 -9 0 -2 0 -8 -9 -7 -21 -7
-160 -49 -4 -53 -164 -256 -125 -93 -80 -62 -1 -7 -8 -18 -11 -2 -25 -206 -90 0 0 0 0 0 0 -180 -374 -295 -196 -177 -190 -155 -101 -60 -32 -5 -28 -12 -14 -13 -26 -1 -11 -25
-116 -82 -21 -57 -223 -41 -48 -152 -334 -163 -4 -15 -28 -11 -5 0 -19 -153 0 0 0 0 0 -35 0 0 0 -200 -347 -399 -300 -79 -247 -144 -119 -63 -3 -2 -1 -1 -2 -14 -7 -16
-41 -20 -3 -21 -38 -272 -138 -15 -93 -71 -5 -8 -36 -5 -31 -24 -35 -29 0 0 0 0 0 0 0 0 0 -1 -435 -423 -354 -354 -76 -1 -190 -60 -3 -1 -1 -3 -2 -2 0 0
-6 -1 -1 -7 -37 -16 -26 -4 -1 -1 -7 -48 -48 -36 -171 -93 0 0 0 0 0 0 0 0 0 0 0 -1 -2 -1 -7 0 -13 -19 -312 -165 -48 -4 -2 -3 -3 -2 -2 -4
-2 -5 -9 -5 -3 0 -1 -12 -23 -24 -30 0 0 -61 -1 0 0 0 0 0 0 0 0 0 0 0 0 0 0 0 0 0 0 0 0 0 -82 -141 -36 -2 -1 -1 0 -1
-3 -1 -41 -66 -14 -1 -5 -25 -87 -85 0 0 0 0 0 0 0 0 0 0 0 0 0 0 0 0 0 -2 -4 0 0 -6 0 0 0 0 -10 0 -246 -119 -23 -1 -1 0
-2 -39 -27 -3 -2 -6 -13 -92 -143 -91 0 0 0 0 0 0 0 0 0 0 0 0 0 0 0 0 0 -1 -1 0 -1 0 0 0 0 0 0 0 0 -387 -259 -47 0 0
0 -6 -3 -24 0 -22 -63 -149 -55 0 -25 0 0 0 0 0 0 0 0 0 0 0 0 0 0 0 0 0 -1 0 -1 -1 0 0 0 0 0 0 0 0 -176 -149 -37 0
-22 -1 -7 -12 -6 -1 -118 0 -22 -96 0 0 0 0 0 0 0 0 0 0 0 0 0 0 0 0 0 0 0 0 0 0 0 0 0 0 0 0 -1 0 0 -300 -73 -1
-67 -37 -11 -19 -24 -83 -36 -144 -139 0 0 0 0 0 0 0 0 0 0 0 0 0 0 0 0 0 0 0 0 0 0 0 0 0 0 0 0 -1 -1 0 0 -371 -154 -6
-28 -40 -42 -19 -70 -126 0 0 0 0 0 0 0 0 0 0 0 0 0 0 0 0 0 0 0 0 0 0 0 0 0 0 0 0 0 0 0 0 0 0 0 -339 -146 -30
-12 -55 -8 0 -9 -74 0 0 0 0 0 0 0 0 0 0 0 0 0 0 0 0 0 0 0 0 0 0 0 0 0 0 0 0 0 0 0 0 0 -226 -221 -132 -134 -60
-19 -16 -11 -1 -26 -32 -3 0 0 0 0 0 0 0 0 0 0 0 0 0 0 0 0 0 0 0 0 0 0 0 0 0 0 0 0 0 0 0 0 -1 -117 -76 -107 -86
Wind_Speed
nan nan nan nan nan nan nan nan nan nan nan nan 21 18 6 2 3 3 14 24 24 25 25 27 24 22 23 20 13 14 14 7 4 10 8 7 9 9 9 9 6 11 6 8
nan nan nan nan nan nan nan nan nan nan nan nan 31 26 12 3 9 9 9 14 20 25 28 27 25 26 26 25 20 16 13 15 15 11 7 5 9 11 11 14 11 12 11 7
nan nan nan nan nan nan nan nan nan nan nan nan 9 46 24 34 6 1 6 12 13 14 35 23 26 24 26 29 29 25 21 18 16 12 6 8 9 14 13 11 12 12 11 11
nan nan nan nan nan nan nan nan nan nan nan nan nan 32 23 27 34 8 1 4 12 9 6 19 30 25 26 21 26 28 26 24 20 17 15 16 7 5 8 11 6 10 13 14
nan nan nan nan nan nan nan nan nan nan nan nan nan 37 nan 33 28 8 12 9 7 5 7 10 14 19 25 23 20 20 24 24 23 22 19 11 14 6 7 9 9 7 12 11
nan nan nan nan nan nan nan nan nan nan nan nan nan nan nan 23 10 12 12 17 11 15 10 3 7 29 17 21 20 18 19 19 21 21 21 20 13 11 7 8 12 9 11 16
nan nan nan nan nan nan nan nan nan nan nan nan 32 34 nan 19 7 16 15 16 17 12 16 16 13 12 12 17 18 17 20 18 16 17 16 18 16 12 9 8 8 6 10 9
nan nan nan nan nan nan nan nan nan 39 nan 2 37 37 26 24 16 22 19 20 24 22 22 21 19 22 24 20 16 20 24 25 23 17 14 11 12 11 11 12 12 7 8 14
nan nan nan nan nan nan nan 5 nan 2 nan 4 34 33 8 18 15 21 24 26 27 29 26 29 30 27 25 27 29 32 30 22 22 22 26 22 17 16 13 10 12 13 9 11
nan 16 23 nan nan nan nan nan 7 18 22 25 8 32 24 26 19 19 27 26 29 33 34 33 33 34 30 28 30 34 34 32 29 29 28 22 19 22 20 18 15 15 16 13
nan nan 26 nan nan nan nan nan 24 nan 28 nan nan 28 nan nan 33 21 29 31 31 33 34 36 35 35 37 34 34 33 34 36 37 34 33 32 35 33 24 20 21 18 18 16
nan nan nan 25 12 19 25 22 21 nan nan nan 23 24 38 24 20 18 23 nan nan nan nan nan nan nan nan 34 33 36 36 36 39 38 37 37 36 37 39 37 38 34 27 21
nan nan nan nan 21 52 26 30 nan 5 nan nan 22 37 18 20 29 25 nan nan nan nan nan nan nan nan nan 34 36 nan 36 39 38 39 38 37 38 40 43 41 35 36 34 35
nan nan 21 30 42 nan nan nan nan 23 10 16 39 54 49 38 25 nan nan nan nan nan nan nan nan nan nan nan 31 33 32 35 34 35 32 31 31 30 33 34 36 36 37 36
nan nan 15 28 nan nan nan nan nan 27 12 18 nan nan 48 48 39 nan nan nan nan nan nan nan nan nan nan nan nan nan nan nan nan 31 30 31 30 27 26 25 27 28 29 31
10 11 10 36 nan 37 35 25 20 33 20 nan nan 41 51 46 36 36 nan nan nan nan nan nan nan nan nan nan nan nan nan nan nan nan 29 29 30 30 30 31 28 27 29 32
10 14 25 27 18 48 29 5 11 11 nan nan nan 41 nan nan nan nan nan nan nan nan nan nan nan nan nan nan nan nan nan nan nan nan nan 26 29 31 34 36 35 34 33 31
12 21 25 24 17 3 12 36 30 nan nan nan nan nan nan nan nan nan nan nan nan nan nan nan nan nan nan nan nan nan nan nan nan nan nan nan 33 36 37 38 39 36 35 34
nan nan nan nan nan 7 3 41 nan nan nan nan nan nan nan nan nan nan nan nan nan nan nan nan nan nan nan nan nan nan nan nan nan nan nan nan nan nan 33 35 37 36 36 35
nan nan nan 21 nan nan 33 nan nan nan nan nan nan nan nan nan nan nan nan nan nan nan nan nan nan nan nan nan nan nan nan nan nan nan nan nan nan nan nan nan nan 31 33 32
19 21 nan nan nan nan nan nan nan nan nan nan nan nan nan nan nan nan nan nan nan nan nan nan nan nan nan nan nan nan nan nan nan nan nan nan nan nan nan nan nan 28 31 32
nan nan nan nan nan 11 nan nan nan 33 nan nan nan nan nan nan nan nan nan nan nan nan nan nan nan nan nan nan nan nan nan nan nan nan nan nan nan nan nan nan nan 25 28 29
nan nan 24 27 32 34 nan nan nan nan nan nan nan nan nan nan nan nan nan nan nan nan nan nan nan nan nan nan nan nan nan nan nan nan nan nan nan nan nan nan nan nan 26 28
21 nan nan nan nan nan nan nan nan nan nan nan nan nan nan nan nan nan nan nan nan nan nan nan nan nan nan nan nan nan nan nan nan nan nan nan nan nan nan nan nan nan 24 25
28 nan nan nan 30 nan nan nan nan nan nan nan nan nan nan nan nan nan nan nan nan nan nan nan nan nan nan nan nan nan nan nan nan nan nan nan nan nan nan 24 26 22 19 23
nan nan nan nan 26 19 nan nan nan nan nan nan nan nan nan nan nan nan nan nan nan nan nan nan nan nan nan nan nan nan nan nan nan nan nan nan nan nan nan nan 21 17 15 12
Wind_Direction
nan nan nan nan nan nan nan nan nan nan nan nan 301 293 285 96 140 317 355 356 2 12 12 8 15 12 357 354 18 21 347 200 174 210 215 212 235 232 235 250 272 307 280 309
nan nan nan nan nan nan nan nan nan nan nan nan 300 303 290 224 196 185 116 22 18 10 360 7 17 14 15 0 8 11 358 359 5 298 219 251 253 269 268 266 262 280 285 286
nan nan nan nan nan nan nan nan nan nan nan nan 291 246 144 180 171 120 87 86 83 35 337 17 11 21 32 12 13 15 19 1 6 1 358 309 258 264 274 271 283 279 282 286
nan nan nan nan nan nan nan nan nan nan nan nan nan 277 266 202 135 182 203 60 4 42 331 13 355 9 21 30 17 14 22 32 20 17 8 8 330 258 289 306 288 298 313 309
nan nan nan nan nan nan nan nan nan nan nan nan nan 267 nan 21 94 234 260 239 259 320 357 352 17 24 356 14 21 13 15 20 25 28 36 39 22 21 311 295 291 284 286 285
nan nan nan nan nan nan nan nan nan nan nan nan nan nan nan 341 229 248 246 281 241 241 254 265 190 350 340 354 4 9 7 15 15 10 19 32 37 8 329 334 304 264 297 303
nan nan nan nan nan nan nan nan nan nan nan nan 275 257 nan 3 295 269 272 272 272 253 240 247 251 249 236 314 337 339 339 347 358 11 21 15 26 30 18 346 343 283 270 260
nan nan nan nan nan nan nan nan nan 301 nan 14 239 273 283 317 273 267 267 274 272 265 270 261 253 256 249 242 269 317 321 329 334 340 348 2 5 347 341 344 336 342 286 288
nan nan nan nan nan nan nan 120 nan 101 nan 309 270 266 303 278 262 277 264 267 273 280 275 269 263 269 252 256 261 262 257 275 306 323 327 328 335 337 334 318 313 311 311 294
nan 306 348 nan nan nan nan nan 144 233 254 235 240 251 243 186 178 264 268 264 268 271 271 270 273 272 265 262 262 265 264 269 273 272 271 278 313 315 315 311 312 287 290 282
nan nan 270 nan nan nan nan nan 224 nan 259 nan nan 279 nan nan 122 260 263 265 261 265 266 269 267 262 265 260 259 261 266 274 276 277 276 273 273 270 278 298 293 302 292 285
nan nan nan 331 31 252 289 284 298 nan nan nan 3 285 319 359 56 299 287 nan nan nan nan nan nan nan nan 266 264 269 271 271 276 282 281 282 278 276 269 269 267 274 273 268
nan nan nan nan 266 215 206 220 nan 132 nan nan 301 296 33 8 319 309 nan nan nan nan nan nan nan nan nan 270 271 nan 269 273 278 281 278 281 283 277 274 268 267 268 270 271
nan nan 191 248 271 nan nan nan nan 142 200 255 327 334 346 335 320 nan nan nan nan nan nan nan nan nan nan nan 273 272 269 272 273 273 272 281 279 275 283 276 272 267 264 266
nan nan 243 274 nan nan nan nan nan 168 171 219 nan nan 305 307 312 nan nan nan nan nan nan nan nan nan nan nan nan nan nan nan nan 266 268 270 269 271 269 274 275 278 277 270
195 203 156 304 nan 287 98 18 352 7 284 nan nan 273 278 286 302 305 nan nan nan nan nan nan nan nan nan nan nan nan nan nan nan nan 271 272 271 270 268 264 265 271 272 268
223 189 213 218 289 329 359 204 238 236 nan nan nan 276 nan nan nan nan nan nan nan nan nan nan nan nan nan nan nan nan nan nan nan nan nan 276 270 266 269 269 270 271 273 268
212 246 223 229 251 169 294 279 282 nan nan nan nan nan nan nan nan nan nan nan nan nan nan nan nan nan nan nan nan nan nan nan nan nan nan nan 258 255 258 260 265 268 268 269
nan nan nan nan nan 243 88 285 nan nan nan nan nan nan nan nan nan nan nan nan nan nan nan nan nan nan nan nan nan nan nan nan nan nan nan nan nan nan 257 255 252 256 260 260
nan nan nan 258 nan nan 256 nan nan nan nan nan nan nan nan nan nan nan nan nan nan nan nan nan nan nan nan nan nan nan nan nan nan nan nan nan nan nan nan nan nan 262 260 260
281 270 nan nan nan nan nan nan nan nan nan nan nan nan nan nan nan nan nan nan nan nan nan nan nan nan nan nan nan nan nan nan nan nan nan nan nan nan nan nan nan 269 265 263
nan nan nan nan nan 239 nan nan nan 282 nan nan nan nan nan nan nan nan nan nan nan nan nan nan nan nan nan nan nan nan nan nan nan nan nan nan nan nan nan nan nan 273 272 264
nan nan 236 243 246 261 nan nan nan nan nan nan nan nan nan nan nan nan nan nan nan nan nan nan nan nan nan nan nan nan nan nan nan nan nan nan nan nan nan nan nan nan 281 274
284 nan nan nan nan nan nan nan nan nan nan nan nan nan nan nan nan nan nan nan nan nan nan nan nan nan nan nan nan nan nan nan nan nan nan nan nan nan nan nan nan nan 283 277
259 nan nan nan 281 nan nan nan nan nan nan nan nan nan nan nan nan nan nan nan nan nan nan nan nan nan nan nan nan nan nan nan nan nan nan nan nan nan nan 282 280 276 274 268
nan nan nan nan 255 270 nan nan nan nan nan nan nan nan nan nan nan nan nan nan nan nan nan nan nan nan nan nan nan nan nan nan nan nan nan nan nan nan nan nan 274 276 289 263